KAC501 OKKK-OLBA

Flight info

Callsign KAC501
Flight time 2h 55m
Altitude 38000
Route NIDAP L550 NOVPA J981 DATOK L550 STEPA/N0491F390 DCT ODELO/N0492F380 L78 DESPO M31 KUKLA R219 KAD
Aircraft B77W/H-SDE1E2E3FGHIJ2J3J4J5M1RWXY/LB1D1

Departure

Time 2026-04-28 13:59
Airport Kuwait International Airport (OKKK)

Arrival

Time 2026-04-28 16:55
Airport Beirut Rafic Hariri International Airport (OLBA)
Time Latitude Longitude Altitude Speed Heading
2026-04-28 13:16 29.24797 47.96119 171 ft 0 kts 65°
2026-04-28 13:48 29.24796 47.96115 172 ft 2 kts 65°
2026-04-28 13:48 29.24789 47.96098 171 ft 2 kts 65°
2026-04-28 13:48 29.24782 47.96081 171 ft 2 kts 65°
2026-04-28 13:48 29.24775 47.96064 171 ft 2 kts 65°
2026-04-28 13:49 29.24768 47.96047 170 ft 2 kts 80°
2026-04-28 13:49 29.24772 47.96029 170 ft 2 kts 126°
2026-04-28 13:49 29.24782 47.96015 170 ft 2 kts 140°
2026-04-28 13:49 29.24796 47.96005 170 ft 2 kts 155°
2026-04-28 13:50 29.24809 47.95998 170 ft 1 kts 155°
2026-04-28 13:50 29.24811 47.95997 170 ft 0 kts 155°
2026-04-28 13:52 29.24793 47.96007 170 ft 5 kts 154°
2026-04-28 13:52 29.24743 47.96034 169 ft 10 kts 154°
2026-04-28 13:52 29.24669 47.96074 169 ft 13 kts 155°
2026-04-28 13:52 29.24589 47.96117 169 ft 13 kts 155°
2026-04-28 13:53 29.24508 47.96160 169 ft 13 kts 154°
2026-04-28 13:53 29.24429 47.96203 169 ft 13 kts 155°
2026-04-28 13:53 29.24355 47.96242 169 ft 11 kts 155°
2026-04-28 13:53 29.24286 47.96278 169 ft 11 kts 155°
2026-04-28 13:54 29.24219 47.96314 169 ft 7 kts 155°
2026-04-28 13:54 29.24178 47.96309 168 ft 7 kts 212°
2026-04-28 13:54 29.24152 47.96271 167 ft 0 kts 240°
2026-04-28 13:54 29.24150 47.96268 166 ft 0 kts 242°
2026-04-28 13:56 29.24150 47.96267 166 ft 1 kts 242°
2026-04-28 13:56 29.24125 47.96218 165 ft 11 kts 232°
2026-04-28 13:56 29.24054 47.96190 165 ft 12 kts 185°
2026-04-28 13:56 29.23974 47.96196 164 ft 12 kts 164°
2026-04-28 13:57 29.23949 47.96207 164 ft 0 kts 156°
2026-04-28 13:58 29.23868 47.96250 165 ft 44 kts 155°
2026-04-28 13:58 29.23346 47.96528 168 ft 119 kts 155°
2026-04-28 13:59 29.22404 47.97022 222 ft 170 kts 156°
2026-04-28 13:59 29.21673 47.97384 522 ft 177 kts 156°
2026-04-28 13:59 29.20521 47.97945 1118 ft 183 kts 162°
2026-04-28 13:59 29.19356 47.98584 1803 ft 184 kts 161°
2026-04-28 14:00 29.18163 47.99245 2305 ft 201 kts 161°
2026-04-28 14:00 29.16811 47.99976 2559 ft 229 kts 161°
2026-04-28 14:00 29.15276 48.00796 2905 ft 254 kts 160°
2026-04-28 14:00 29.13641 48.01665 3642 ft 263 kts 160°
2026-04-28 14:01 29.11954 48.02558 4472 ft 270 kts 159°
2026-04-28 14:01 29.10237 48.03465 5358 ft 274 kts 159°
2026-04-28 14:01 29.08462 48.04175 6166 ft 270 kts 178°
2026-04-28 14:01 29.06610 48.04028 6901 ft 267 kts 192°
2026-04-28 14:02 29.04760 48.03718 7700 ft 271 kts 191°
2026-04-28 14:02 29.02912 48.03432 8612 ft 271 kts 191°
2026-04-28 14:02 29.01007 48.03142 9465 ft 276 kts 191°
2026-04-28 14:02 28.99116 48.02853 9938 ft 279 kts 191°
2026-04-28 14:03 28.97173 48.02556 10132 ft 288 kts 191°
2026-04-28 14:03 28.95069 48.02230 10361 ft 316 kts 191°
2026-04-28 14:03 28.92827 48.01886 10576 ft 343 kts 190°
2026-04-28 14:03 28.90395 48.01517 11027 ft 360 kts 190°
2026-04-28 14:04 28.87877 48.01140 11805 ft 369 kts 191°
2026-04-28 14:04 28.85318 48.00754 12799 ft 373 kts 191°
2026-04-28 14:04 28.82730 48.00361 13791 ft 377 kts 191°
2026-04-28 14:04 28.80117 47.99966 14709 ft 381 kts 191°
2026-04-28 14:05 28.77476 47.99567 15664 ft 384 kts 192°
2026-04-28 14:05 28.74813 47.99165 16621 ft 388 kts 192°
2026-04-28 14:05 28.72167 47.98627 17409 ft 385 kts 202°
2026-04-28 14:05 28.69805 47.97213 18155 ft 385 kts 219°
2026-04-28 14:06 28.67845 47.95146 18968 ft 385 kts 231°
2026-04-28 14:06 28.66345 47.92615 19841 ft 386 kts 240°
2026-04-28 14:06 28.64971 47.89976 20623 ft 389 kts 239°
2026-04-28 14:06 28.63550 47.87330 21400 ft 394 kts 239°
2026-04-28 14:07 28.62184 47.84628 22040 ft 395 kts 246°
2026-04-28 14:07 28.61520 47.81568 22629 ft 405 kts 263°
2026-04-28 14:07 28.61579 47.78381 23375 ft 412 kts 273°
2026-04-28 14:07 28.62064 47.75146 24036 ft 417 kts 278°
2026-04-28 14:08 28.62738 47.71928 24691 ft 420 kts 280°
2026-04-28 14:08 28.63453 47.68695 25323 ft 423 kts 279°
2026-04-28 14:08 28.64139 47.65429 25907 ft 425 kts 279°
2026-04-28 14:08 28.64801 47.62132 26495 ft 428 kts 278°
2026-04-28 14:09 28.65313 47.58794 27036 ft 428 kts 274°
2026-04-28 14:09 28.65621 47.55414 27580 ft 430 kts 271°
2026-04-28 14:09 28.65852 47.52005 28123 ft 432 kts 271°
2026-04-28 14:09 28.66073 47.48576 28611 ft 435 kts 271°
2026-04-28 14:10 28.66308 47.45129 29091 ft 438 kts 271°
2026-04-28 14:10 28.66564 47.41654 29530 ft 441 kts 271°
2026-04-28 14:10 28.66836 47.38164 29922 ft 443 kts 272°
2026-04-28 14:10 28.67118 47.34665 30261 ft 445 kts 271°
2026-04-28 14:11 28.67401 47.31201 30635 ft 444 kts 271°
2026-04-28 14:11 28.67688 47.27699 31121 ft 441 kts 271°
2026-04-28 14:11 28.67972 47.24233 31642 ft 437 kts 271°
2026-04-28 14:11 28.68252 47.20799 32187 ft 433 kts 270°
2026-04-28 14:12 28.68527 47.17402 32673 ft 429 kts 270°
2026-04-28 14:12 28.68798 47.14023 33098 ft 427 kts 270°
2026-04-28 14:12 28.69066 47.10665 33567 ft 424 kts 270°
2026-04-28 14:12 28.69332 47.07318 33988 ft 421 kts 270°
2026-04-28 14:13 28.69592 47.04043 34296 ft 420 kts 270°
2026-04-28 14:13 28.69854 47.00727 34558 ft 420 kts 270°
2026-04-28 14:13 28.70115 46.97414 34825 ft 420 kts 270°
2026-04-28 14:13 28.70376 46.94100 35087 ft 419 kts 270°
2026-04-28 14:14 28.70635 46.90801 35388 ft 418 kts 270°
2026-04-28 14:14 28.70894 46.87499 35688 ft 417 kts 270°
2026-04-28 14:14 28.71155 46.84213 35981 ft 416 kts 270°
2026-04-28 14:14 28.71422 46.80931 36274 ft 415 kts 270°
2026-04-28 14:15 28.71690 46.77664 36554 ft 414 kts 270°
2026-04-28 14:15 28.71952 46.74445 36832 ft 413 kts 270°
2026-04-28 14:15 28.72216 46.71193 37111 ft 412 kts 270°
2026-04-28 14:15 28.72478 46.67940 37375 ft 411 kts 270°
2026-04-28 14:16 28.72738 46.64700 37675 ft 411 kts 270°
2026-04-28 14:16 28.72998 46.61441 37724 ft 414 kts 270°
2026-04-28 14:16 28.73518 46.54913 37772 ft 412 kts 270°
2026-04-28 14:17 28.74031 46.48450 37786 ft 408 kts 270°
2026-04-28 14:17 28.74535 46.42031 37786 ft 406 kts 270°
2026-04-28 14:18 28.75035 46.35629 37784 ft 405 kts 270°
2026-04-28 14:18 28.75523 46.29217 37789 ft 406 kts 270°
2026-04-28 14:19 28.75986 46.22845 37819 ft 407 kts 270°
2026-04-28 14:19 28.76451 46.16405 37794 ft 408 kts 270°
2026-04-28 14:20 28.76917 46.09951 37788 ft 409 kts 270°
2026-04-28 14:20 28.77382 46.03488 37789 ft 409 kts 270°
2026-04-28 14:21 28.77843 45.97024 37793 ft 409 kts 270°
2026-04-28 14:21 28.78301 45.90559 37793 ft 409 kts 270°
2026-04-28 14:22 28.78758 45.84079 37797 ft 409 kts 270°
2026-04-28 14:22 28.79209 45.77622 37822 ft 409 kts 270°
2026-04-28 14:23 28.79655 45.71205 37806 ft 408 kts 269°
2026-04-28 14:23 28.80100 45.64751 37802 ft 408 kts 269°
2026-04-28 14:24 28.80541 45.58311 37807 ft 407 kts 269°
2026-04-28 14:24 28.80979 45.51868 37803 ft 407 kts 269°
2026-04-28 14:25 28.81413 45.45433 37813 ft 407 kts 269°
2026-04-28 14:25 28.81847 45.38970 37810 ft 408 kts 269°
2026-04-28 14:26 28.82276 45.32524 37820 ft 408 kts 269°
2026-04-28 14:26 28.82702 45.26072 37824 ft 408 kts 269°
2026-04-28 14:27 28.83124 45.19651 37819 ft 408 kts 269°
2026-04-28 14:27 28.83545 45.13188 37825 ft 408 kts 269°
2026-04-28 14:28 28.83962 45.06729 37817 ft 408 kts 269°
2026-04-28 14:28 28.84377 45.00270 37821 ft 408 kts 269°
2026-04-28 14:29 28.84789 44.93809 37820 ft 408 kts 269°
2026-04-28 14:29 28.85197 44.87346 37824 ft 408 kts 269°
2026-04-28 14:30 28.85602 44.80893 37823 ft 407 kts 269°
2026-04-28 14:30 28.86001 44.74492 37823 ft 407 kts 269°
2026-04-28 14:31 28.86490 44.68038 37822 ft 408 kts 270°
2026-04-28 14:31 28.87028 44.61591 37824 ft 408 kts 270°
2026-04-28 14:32 28.87558 44.55142 37832 ft 408 kts 270°
2026-04-28 14:32 28.88077 44.48688 37800 ft 408 kts 270°
2026-04-28 14:33 28.88589 44.42242 37834 ft 408 kts 270°
2026-04-28 14:33 28.89093 44.35832 37838 ft 408 kts 270°
2026-04-28 14:34 28.89851 44.26144 37829 ft 408 kts 270°
2026-04-28 14:35 28.90351 44.19694 37843 ft 408 kts 270°
2026-04-28 14:35 28.90848 44.13242 37837 ft 408 kts 270°
2026-04-28 14:36 28.91343 44.06785 37839 ft 407 kts 270°
2026-04-28 14:36 28.91834 44.00341 37851 ft 408 kts 270°
2026-04-28 14:37 28.92318 43.93933 37841 ft 407 kts 270°
2026-04-28 14:37 28.92803 43.87482 37844 ft 407 kts 270°
2026-04-28 14:38 28.93284 43.81048 37861 ft 406 kts 270°
2026-04-28 14:38 28.93761 43.74620 37853 ft 406 kts 270°
2026-04-28 14:39 28.94235 43.68187 37852 ft 406 kts 270°
2026-04-28 14:39 28.94703 43.61796 37884 ft 407 kts 270°
2026-04-28 14:40 28.95173 43.55346 37867 ft 407 kts 270°
2026-04-28 14:40 28.95636 43.48912 37865 ft 407 kts 269°
2026-04-28 14:41 28.96094 43.42473 37911 ft 407 kts 269°
2026-04-28 14:41 28.96548 43.36026 37883 ft 407 kts 269°
2026-04-28 14:42 28.96999 43.29581 37873 ft 407 kts 269°
2026-04-28 14:42 28.97445 43.23181 37842 ft 407 kts 269°
2026-04-28 14:43 28.97891 43.16741 37866 ft 406 kts 269°
2026-04-28 14:43 28.98332 43.10312 37886 ft 406 kts 269°
2026-04-28 14:44 28.98771 43.03869 37885 ft 406 kts 269°
2026-04-28 14:44 28.99207 42.97434 37891 ft 407 kts 269°
2026-04-28 14:45 28.99638 42.91020 37893 ft 407 kts 269°
2026-04-28 14:45 29.00069 42.84572 37896 ft 407 kts 269°
2026-04-28 14:46 29.00496 42.78119 37889 ft 407 kts 269°
2026-04-28 14:46 29.00918 42.71704 37905 ft 407 kts 269°
2026-04-28 14:47 29.01339 42.65255 37913 ft 407 kts 269°
2026-04-28 14:47 29.01690 42.59845 37930 ft 407 kts 269°
2026-04-28 14:48 29.02103 42.53436 37909 ft 407 kts 269°
2026-04-28 14:48 29.02518 42.46951 37913 ft 407 kts 269°
2026-04-28 14:49 29.02925 42.40540 37948 ft 407 kts 269°
2026-04-28 14:49 29.03331 42.34086 37925 ft 407 kts 269°
2026-04-28 14:50 29.03735 42.27622 37928 ft 407 kts 269°
2026-04-28 14:50 29.04136 42.21169 37930 ft 407 kts 269°
2026-04-28 14:51 29.04533 42.14716 37940 ft 407 kts 269°
2026-04-28 14:51 29.04927 42.08302 37939 ft 407 kts 269°
2026-04-28 14:52 29.05320 42.01851 37945 ft 407 kts 269°
2026-04-28 14:52 29.05710 41.95401 37950 ft 407 kts 269°
2026-04-28 14:53 29.06099 41.88940 37915 ft 407 kts 269°
2026-04-28 14:53 29.06487 41.82496 37945 ft 406 kts 269°
2026-04-28 14:54 29.06871 41.76061 37966 ft 406 kts 269°
2026-04-28 14:54 29.07252 41.69612 37955 ft 406 kts 269°
2026-04-28 14:55 29.07631 41.63166 37956 ft 406 kts 269°
2026-04-28 14:55 29.08004 41.56764 37966 ft 406 kts 269°
2026-04-28 14:56 29.08376 41.50306 37975 ft 407 kts 269°
2026-04-28 14:56 29.08746 41.43845 37968 ft 407 kts 269°
2026-04-28 14:57 29.09110 41.37381 37971 ft 407 kts 269°
2026-04-28 14:57 29.09465 41.30959 37981 ft 407 kts 269°
2026-04-28 14:58 29.09819 41.24495 37981 ft 407 kts 269°
2026-04-28 14:58 29.10170 41.18032 37976 ft 406 kts 269°
2026-04-28 14:59 29.10516 41.11619 38001 ft 406 kts 269°
2026-04-28 14:59 29.10862 41.05160 37982 ft 407 kts 269°
2026-04-28 15:00 29.11205 40.98695 37991 ft 407 kts 269°
2026-04-28 15:00 29.11544 40.92235 37993 ft 407 kts 269°
2026-04-28 15:01 29.11880 40.85771 37993 ft 407 kts 269°
2026-04-28 15:01 29.12214 40.79298 37986 ft 407 kts 269°
2026-04-28 15:02 29.12544 40.72831 37988 ft 407 kts 269°
2026-04-28 15:02 29.12872 40.66366 37986 ft 407 kts 269°
2026-04-28 15:03 29.13194 40.59946 37996 ft 407 kts 269°
2026-04-28 15:03 29.13187 40.53506 37994 ft 404 kts 264°
2026-04-28 15:04 29.12962 40.47070 38011 ft 404 kts 265°
2026-04-28 15:04 29.12743 40.40642 38000 ft 404 kts 265°
2026-04-28 15:05 29.12528 40.34241 37997 ft 405 kts 265°
2026-04-28 15:05 29.12311 40.27797 37997 ft 405 kts 265°
2026-04-28 15:06 29.12090 40.21340 38004 ft 406 kts 265°
2026-04-28 15:06 29.11866 40.14881 38003 ft 406 kts 265°
2026-04-28 15:07 29.11638 40.08414 38000 ft 407 kts 265°
2026-04-28 15:07 29.11409 40.01976 38033 ft 407 kts 265°
2026-04-28 15:08 29.11175 39.95494 38004 ft 407 kts 265°
2026-04-28 15:08 29.10954 39.89057 38008 ft 407 kts 266°
2026-04-28 15:09 29.10962 39.82568 38004 ft 408 kts 267°
2026-04-28 15:09 29.11031 39.76073 38008 ft 408 kts 267°
2026-04-28 15:10 29.11076 39.69568 38007 ft 408 kts 267°
2026-04-28 15:10 29.11100 39.63126 38005 ft 408 kts 267°
2026-04-28 15:11 29.11115 39.56623 38026 ft 409 kts 267°
2026-04-28 15:11 29.11126 39.50110 38004 ft 409 kts 267°
2026-04-28 15:12 29.11135 39.43605 37996 ft 409 kts 267°
2026-04-28 15:12 29.11141 39.37100 38001 ft 409 kts 267°
2026-04-28 15:13 29.11144 39.30634 37994 ft 409 kts 267°
2026-04-28 15:13 29.11144 39.24132 37997 ft 408 kts 267°
2026-04-28 15:14 29.11140 39.17633 37992 ft 408 kts 267°
2026-04-28 15:14 29.11134 39.11135 38006 ft 408 kts 267°
2026-04-28 15:15 29.11124 39.04632 37992 ft 409 kts 267°
2026-04-28 15:15 29.11112 38.98128 37987 ft 409 kts 267°
2026-04-28 15:16 29.11096 38.91613 37986 ft 409 kts 267°
2026-04-28 15:16 29.11071 38.85147 37984 ft 410 kts 267°
2026-04-28 15:17 29.11043 38.78621 37980 ft 411 kts 267°
2026-04-28 15:17 29.11012 38.72086 37993 ft 411 kts 267°
2026-04-28 15:18 29.10978 38.65541 37972 ft 410 kts 267°
2026-04-28 15:18 29.10942 38.59012 37985 ft 410 kts 267°
2026-04-28 15:19 29.10902 38.52483 37977 ft 410 kts 267°
2026-04-28 15:19 29.10859 38.45960 37986 ft 410 kts 267°
2026-04-28 15:20 29.10813 38.39435 37977 ft 410 kts 267°
2026-04-28 15:20 29.10761 38.32955 37982 ft 410 kts 267°
2026-04-28 15:21 29.10702 38.26425 37978 ft 410 kts 267°
2026-04-28 15:21 29.10639 38.19894 37980 ft 410 kts 267°
2026-04-28 15:22 29.10575 38.13392 37980 ft 411 kts 267°
2026-04-28 15:22 29.10507 38.06846 37969 ft 411 kts 267°
2026-04-28 15:23 29.10436 38.00301 37926 ft 411 kts 267°
2026-04-28 15:23 29.10363 37.93766 37974 ft 410 kts 267°
2026-04-28 15:24 29.10285 37.87236 37971 ft 411 kts 267°
2026-04-28 15:24 29.10206 37.80738 37956 ft 411 kts 267°
2026-04-28 15:25 29.10122 37.74204 37954 ft 411 kts 267°
2026-04-28 15:25 29.10036 37.67664 37967 ft 411 kts 267°
2026-04-28 15:26 29.09947 37.61151 37953 ft 412 kts 267°
2026-04-28 15:26 29.09854 37.54592 37963 ft 412 kts 267°
2026-04-28 15:27 29.09768 37.48037 37952 ft 412 kts 267°
2026-04-28 15:27 29.09728 37.41454 37948 ft 413 kts 268°
2026-04-28 15:28 29.09690 37.34881 37949 ft 413 kts 268°
2026-04-28 15:28 29.09646 37.28319 37939 ft 413 kts 268°
2026-04-28 15:29 29.09595 37.21781 37966 ft 413 kts 268°
2026-04-28 15:29 29.09540 37.15212 37955 ft 413 kts 268°
2026-04-28 15:30 29.09483 37.08637 37942 ft 413 kts 268°
2026-04-28 15:30 29.09422 37.02109 37958 ft 413 kts 268°
2026-04-28 15:31 29.09358 36.95545 37952 ft 413 kts 268°
2026-04-28 15:31 29.09290 36.88975 37946 ft 413 kts 268°
2026-04-28 15:32 29.09220 36.82387 37935 ft 414 kts 268°
2026-04-28 15:32 29.09146 36.75800 37936 ft 414 kts 268°
2026-04-28 15:33 29.09069 36.69250 37938 ft 414 kts 268°
2026-04-28 15:33 29.08989 36.62651 37889 ft 415 kts 268°
2026-04-28 15:34 29.08905 36.56066 37932 ft 414 kts 268°
2026-04-28 15:34 29.08819 36.49491 37959 ft 413 kts 268°
2026-04-28 15:35 29.08715 36.44015 37926 ft 414 kts 267°
2026-04-28 15:35 29.08434 36.34147 37919 ft 414 kts 267°
2026-04-28 15:36 29.08244 36.27564 37921 ft 414 kts 267°
2026-04-28 15:36 29.08057 36.21032 37927 ft 414 kts 267°
2026-04-28 15:37 29.07868 36.14439 37921 ft 414 kts 267°
2026-04-28 15:37 29.07677 36.07846 37917 ft 415 kts 267°
2026-04-28 15:38 29.07482 36.01262 37926 ft 414 kts 267°
2026-04-28 15:38 29.07284 35.94675 37924 ft 414 kts 267°
2026-04-28 15:39 29.07083 35.88109 37911 ft 413 kts 267°
2026-04-28 15:39 29.06880 35.81550 37925 ft 412 kts 267°
2026-04-28 15:40 29.06673 35.74999 37962 ft 412 kts 267°
2026-04-28 15:40 29.06462 35.68448 37937 ft 413 kts 267°
2026-04-28 15:41 29.06251 35.61931 37933 ft 413 kts 267°
2026-04-28 15:41 29.06034 35.55362 37933 ft 413 kts 267°
2026-04-28 15:42 29.05814 35.48788 37941 ft 414 kts 267°
2026-04-28 15:42 29.05590 35.42204 37928 ft 414 kts 267°
2026-04-28 15:43 29.05362 35.35618 37915 ft 414 kts 267°
2026-04-28 15:43 29.05133 35.29041 37960 ft 413 kts 267°
2026-04-28 15:44 29.04902 35.22511 37887 ft 415 kts 267°
2026-04-28 15:44 29.04665 35.15920 37928 ft 415 kts 267°
2026-04-28 15:45 29.04425 35.09317 37909 ft 415 kts 267°
2026-04-28 15:45 29.04181 35.02721 37905 ft 415 kts 267°
2026-04-28 15:46 29.03935 34.96127 37913 ft 415 kts 268°
2026-04-28 15:46 29.03686 34.89532 37906 ft 415 kts 267°
2026-04-28 15:47 29.03444 34.82961 37898 ft 416 kts 268°
2026-04-28 15:47 29.03305 34.76361 37906 ft 415 kts 268°
2026-04-28 15:48 29.03422 34.73082 37915 ft 414 kts 279°
2026-04-28 15:48 29.04324 34.69942 37914 ft 420 kts 291°
2026-04-28 15:48 29.07452 34.64235 37908 ft 430 kts 303°
2026-04-28 15:49 29.09683 34.61895 37918 ft 443 kts 316°
2026-04-28 15:49 29.12257 34.59932 37910 ft 446 kts 318°
2026-04-28 15:49 29.17516 34.56120 37930 ft 447 kts 319°
2026-04-28 15:50 29.22720 34.52280 37932 ft 447 kts 318°
2026-04-28 15:50 29.27914 34.48355 37979 ft 447 kts 318°
2026-04-28 15:51 29.33094 34.44408 37944 ft 445 kts 318°
2026-04-28 15:51 29.38236 34.40487 37934 ft 442 kts 318°
2026-04-28 15:52 29.43343 34.36588 37949 ft 440 kts 318°
2026-04-28 15:52 29.48430 34.32700 37954 ft 439 kts 318°
2026-04-28 15:53 29.53505 34.28816 37961 ft 438 kts 318°
2026-04-28 15:53 29.58549 34.24952 38005 ft 439 kts 318°
2026-04-28 15:54 29.63843 34.21320 37970 ft 446 kts 323°
2026-04-28 15:54 29.69361 34.17993 37957 ft 447 kts 323°
2026-04-28 15:55 29.74876 34.14675 37962 ft 447 kts 323°
2026-04-28 15:55 29.80390 34.11331 37957 ft 447 kts 323°
2026-04-28 15:56 29.85861 34.07996 37955 ft 447 kts 323°
2026-04-28 15:56 29.91367 34.04632 37966 ft 448 kts 323°
2026-04-28 15:57 29.96893 34.01253 37961 ft 449 kts 323°
2026-04-28 15:57 30.02422 33.97867 37960 ft 449 kts 323°
2026-04-28 15:58 30.07911 33.94503 37972 ft 450 kts 323°
2026-04-28 15:58 30.13437 33.91112 37956 ft 450 kts 323°
2026-04-28 15:59 30.18036 33.88286 37978 ft 450 kts 323°
2026-04-28 15:59 30.24504 33.84307 37969 ft 451 kts 323°
2026-04-28 16:00 30.30039 33.80897 37964 ft 450 kts 323°
2026-04-28 16:00 30.35577 33.77481 37973 ft 450 kts 323°
2026-04-28 16:01 30.41070 33.74088 37964 ft 450 kts 323°
2026-04-28 16:01 30.46603 33.70666 37972 ft 451 kts 324°
2026-04-28 16:02 30.52146 33.67232 37985 ft 452 kts 324°
2026-04-28 16:02 30.57700 33.63788 37983 ft 453 kts 324°
2026-04-28 16:03 30.63261 33.60335 37978 ft 453 kts 324°
2026-04-28 16:03 30.68785 33.56901 37976 ft 453 kts 324°
2026-04-28 16:04 30.74350 33.53437 38015 ft 454 kts 324°
2026-04-28 16:04 30.79925 33.49960 37990 ft 455 kts 324°
2026-04-28 16:05 30.85511 33.46473 37985 ft 455 kts 324°
2026-04-28 16:05 30.91102 33.42980 37996 ft 455 kts 324°
2026-04-28 16:06 30.96651 33.39508 37994 ft 455 kts 324°
2026-04-28 16:06 31.02235 33.36008 38024 ft 455 kts 324°
2026-04-28 16:07 31.07831 33.32495 38002 ft 456 kts 325°
2026-04-28 16:08 31.16182 33.27245 37994 ft 456 kts 325°
2026-04-28 16:08 31.21774 33.23724 37998 ft 456 kts 325°
2026-04-28 16:09 31.30154 33.18438 37991 ft 456 kts 325°
2026-04-28 16:10 31.39173 33.14460 37999 ft 473 kts 341°
2026-04-28 16:10 31.49132 33.13558 37994 ft 483 kts 351°
2026-04-28 16:11 31.62591 33.13020 37991 ft 483 kts 350°
2026-04-28 16:12 31.72672 33.12511 37986 ft 483 kts 350°
2026-04-28 16:13 31.82711 33.12009 37988 ft 483 kts 351°
2026-04-28 16:14 31.96149 33.11318 37984 ft 483 kts 351°
2026-04-28 16:15 32.09536 33.10628 37976 ft 483 kts 351°
2026-04-28 16:15 32.16251 33.10277 37973 ft 480 kts 349°
2026-04-28 16:16 32.22465 33.08179 37980 ft 457 kts 325°
2026-04-28 16:16 32.25109 33.06163 37990 ft 449 kts 315°
2026-04-28 16:17 32.31724 32.98427 37996 ft 448 kts 310°
2026-04-28 16:17 32.36145 32.93188 37983 ft 452 kts 310°
2026-04-28 16:18 32.40625 32.87937 37990 ft 454 kts 311°
2026-04-28 16:18 32.45099 32.82705 37983 ft 455 kts 311°
2026-04-28 16:19 32.49599 32.77436 37976 ft 454 kts 311°
2026-04-28 16:19 32.54089 32.72168 37976 ft 453 kts 311°
2026-04-28 16:20 32.58561 32.66911 37977 ft 451 kts 311°
2026-04-28 16:20 32.62262 32.62554 38002 ft 450 kts 311°
2026-04-28 16:21 32.66711 32.57308 37990 ft 451 kts 311°
2026-04-28 16:21 32.71164 32.52052 37971 ft 451 kts 311°
2026-04-28 16:22 32.75993 32.47324 37994 ft 460 kts 330°
2026-04-28 16:22 32.79069 32.46123 37960 ft 473 kts 344°
2026-04-28 16:22 32.82349 32.45875 37985 ft 486 kts 358°
2026-04-28 16:23 32.85719 32.46565 37971 ft 498 kts 11°
2026-04-28 16:23 32.88996 32.48180 37962 ft 511 kts 26°
2026-04-28 16:23 32.91822 32.50807 38013 ft 519 kts 38°
2026-04-28 16:23 32.94419 32.53812 37975 ft 523 kts 41°
2026-04-28 16:24 32.99455 32.59996 37977 ft 524 kts 41°
2026-04-28 16:24 33.04597 32.66183 37966 ft 524 kts 40°
2026-04-28 16:25 33.09819 32.72268 37982 ft 524 kts 40°
2026-04-28 16:25 33.15052 32.78315 37970 ft 523 kts 40°
2026-04-28 16:26 33.20267 32.84360 37965 ft 522 kts 40°
2026-04-28 16:26 33.25454 32.90397 37964 ft 520 kts 40°
2026-04-28 16:27 33.30596 32.96396 37962 ft 519 kts 40°
2026-04-28 16:28 33.38322 33.05428 37966 ft 517 kts 40°
2026-04-28 16:28 33.43465 33.11452 37967 ft 517 kts 40°
2026-04-28 16:29 33.51171 33.20499 37961 ft 517 kts 40°
2026-04-28 16:30 33.58876 33.29570 37965 ft 518 kts 40°
2026-04-28 16:30 33.64023 33.35642 37971 ft 519 kts 40°
2026-04-28 16:31 33.69174 33.41732 37970 ft 520 kts 41°
2026-04-28 16:31 33.74300 33.47812 37970 ft 521 kts 41°
2026-04-28 16:32 33.79457 33.53942 37959 ft 521 kts 41°
2026-04-28 16:32 33.87123 33.63265 37610 ft 527 kts 43°
2026-04-28 16:33 33.89639 33.66522 36913 ft 530 kts 44°
2026-04-28 16:33 33.91286 33.68673 36443 ft 527 kts 44°
2026-04-28 16:33 33.94619 33.73014 35265 ft 526 kts 44°
2026-04-28 16:33 33.97112 33.76231 34449 ft 524 kts 45°
2026-04-28 16:34 33.99567 33.79386 33782 ft 519 kts 45°
2026-04-28 16:34 34.02022 33.82540 33096 ft 512 kts 45°
2026-04-28 16:34 34.04448 33.85663 32339 ft 507 kts 45°
2026-04-28 16:34 34.06845 33.88758 31554 ft 503 kts 45°
2026-04-28 16:35 34.09233 33.91847 30611 ft 503 kts 45°
2026-04-28 16:35 34.11622 33.94941 29720 ft 501 kts 46°
2026-04-28 16:35 34.13981 33.98001 28951 ft 496 kts 46°
2026-04-28 16:35 34.16317 34.01035 28281 ft 489 kts 45°
2026-04-28 16:36 34.18618 34.04023 27632 ft 483 kts 45°
2026-04-28 16:36 34.20891 34.06976 26995 ft 477 kts 46°
2026-04-28 16:36 34.23134 34.09894 26373 ft 472 kts 46°
2026-04-28 16:36 34.25357 34.12787 25733 ft 467 kts 46°
2026-04-28 16:37 34.27559 34.15656 25087 ft 463 kts 46°
2026-04-28 16:37 34.29743 34.18503 24476 ft 459 kts 46°
2026-04-28 16:37 34.31902 34.21320 23888 ft 455 kts 46°
2026-04-28 16:38 34.36119 34.26830 22415 ft 437 kts 46°
2026-04-28 16:38 34.38184 34.29531 21456 ft 439 kts 46°
2026-04-28 16:38 34.40213 34.32269 20727 ft 431 kts 51°
2026-04-28 16:38 34.41623 34.35477 19962 ft 435 kts 72°
2026-04-28 16:39 34.42061 34.39089 19428 ft 432 kts 90°
2026-04-28 16:39 34.41679 34.42647 18931 ft 421 kts 103°
2026-04-28 16:39 34.40630 34.45951 18224 ft 422 kts 120°
2026-04-28 16:39 34.39015 34.48887 17465 ft 418 kts 125°
2026-04-28 16:40 34.37339 34.51761 16849 ft 415 kts 126°
2026-04-28 16:40 34.35703 34.54579 16370 ft 411 kts 125°
2026-04-28 16:40 34.34082 34.57409 15844 ft 407 kts 125°
2026-04-28 16:40 34.32491 34.60218 15290 ft 404 kts 124°
2026-04-28 16:41 34.30913 34.63023 14754 ft 401 kts 124°
2026-04-28 16:41 34.29353 34.65806 14266 ft 398 kts 124°
2026-04-28 16:41 34.27805 34.68568 13760 ft 396 kts 124°
2026-04-28 16:41 34.26263 34.71315 13203 ft 393 kts 124°
2026-04-28 16:42 34.24740 34.74041 12669 ft 387 kts 122°
2026-04-28 16:42 34.23576 34.76935 11988 ft 383 kts 108°
2026-04-28 16:42 34.22804 34.80010 11446 ft 381 kts 105°
2026-04-28 16:42 34.22082 34.83032 11355 ft 367 kts 105°
2026-04-28 16:43 34.21376 34.85939 11259 ft 354 kts 106°
2026-04-28 16:43 34.20678 34.88737 11187 ft 342 kts 106°
2026-04-28 16:43 34.19990 34.91439 11103 ft 329 kts 107°
2026-04-28 16:43 34.19331 34.93995 10952 ft 309 kts 107°
2026-04-28 16:44 34.18703 34.96409 10686 ft 296 kts 107°
2026-04-28 16:44 34.18093 34.98748 10295 ft 289 kts 107°
2026-04-28 16:44 34.17492 35.01042 9829 ft 285 kts 106°
2026-04-28 16:44 34.16896 35.03317 9290 ft 283 kts 107°
2026-04-28 16:45 34.16311 35.05545 8833 ft 281 kts 107°
2026-04-28 16:45 34.15720 35.07796 8482 ft 281 kts 107°
2026-04-28 16:45 34.15128 35.10047 8173 ft 281 kts 107°
2026-04-28 16:45 34.14537 35.12292 7856 ft 280 kts 107°
2026-04-28 16:46 34.13947 35.14531 7541 ft 279 kts 107°
2026-04-28 16:46 34.13358 35.16763 7231 ft 279 kts 107°
2026-04-28 16:46 34.12769 35.18992 6917 ft 278 kts 107°
2026-04-28 16:46 34.12182 35.21214 6597 ft 278 kts 107°
2026-04-28 16:47 34.11595 35.23436 6289 ft 277 kts 107°
2026-04-28 16:47 34.11009 35.25649 5961 ft 277 kts 106°
2026-04-28 16:47 34.10425 35.27854 5636 ft 276 kts 107°
2026-04-28 16:47 34.09846 35.30038 5332 ft 275 kts 107°
2026-04-28 16:48 34.09260 35.32244 5201 ft 266 kts 107°
2026-04-28 16:48 34.08705 35.34330 4948 ft 266 kts 107°
2026-04-28 16:48 34.08139 35.36457 4647 ft 266 kts 107°
2026-04-28 16:48 34.07572 35.38587 4373 ft 264 kts 107°
2026-04-28 16:49 34.06887 35.40560 4251 ft 248 kts 127°
2026-04-28 16:49 34.05597 35.41831 4092 ft 237 kts 160°
2026-04-28 16:49 34.04028 35.42327 3833 ft 229 kts 169°
2026-04-28 16:49 34.02510 35.42728 3567 ft 217 kts 168°
2026-04-28 16:50 34.01092 35.43122 3399 ft 202 kts 168°
2026-04-28 16:50 33.99771 35.43490 3171 ft 187 kts 168°
2026-04-28 16:50 33.98564 35.43827 2948 ft 173 kts 168°
2026-04-28 16:50 33.97426 35.44145 2724 ft 163 kts 168°
2026-04-28 16:51 33.96329 35.44450 2508 ft 161 kts 168°
2026-04-28 16:51 33.95232 35.44757 2302 ft 159 kts 168°
2026-04-28 16:51 33.94200 35.45046 2069 ft 145 kts 168°
2026-04-28 16:51 33.93239 35.45314 1893 ft 141 kts 168°
2026-04-28 16:52 33.92285 35.45582 1743 ft 142 kts 168°
2026-04-28 16:52 33.91324 35.45850 1530 ft 141 kts 167°
2026-04-28 16:52 33.90377 35.46134 1357 ft 140 kts 167°
2026-04-28 16:52 33.89427 35.46423 1167 ft 139 kts 168°
2026-04-28 16:53 33.88474 35.46645 980 ft 140 kts 171°
2026-04-28 16:53 33.87518 35.46893 755 ft 142 kts 169°
2026-04-28 16:53 33.86565 35.47168 575 ft 140 kts 168°
2026-04-28 16:53 33.85611 35.47441 420 ft 143 kts 169°
2026-04-28 16:54 33.84653 35.47712 221 ft 143 kts 168°
2026-04-28 16:54 33.83692 35.47978 29 ft 136 kts 169°
2026-04-28 16:54 33.82879 35.48205 33 ft 101 kts 167°
2026-04-28 16:54 33.82484 35.48312 40 ft 71 kts 167°
2026-04-28 16:55 33.82076 35.48427 43 ft 33 kts 163°
2026-04-28 16:55 33.81893 35.48565 44 ft 31 kts 136°
2026-04-28 16:55 33.81763 35.48739 42 ft 27 kts 116°
2026-04-28 16:55 33.81710 35.48949 41 ft 22 kts 104°
2026-04-28 16:56 33.81771 35.49060 42 ft 17 kts 36°
2026-04-28 16:56 33.81866 35.49141 43 ft 17 kts 34°
2026-04-28 16:56 33.81964 35.49222 42 ft 18 kts 36°
2026-04-28 16:56 33.82065 35.49309 45 ft 18 kts 35°
2026-04-28 16:57 33.82165 35.49394 47 ft 18 kts 34°
2026-04-28 16:57 33.82267 35.49480 48 ft 18 kts 35°
2026-04-28 16:57 33.82361 35.49559 49 ft 13 kts 35°
2026-04-28 16:57 33.82425 35.49568 50 ft 9 kts 336°
2026-04-28 16:58 33.82470 35.49539 49 ft 3 kts 331°
2026-04-28 16:58 33.82480 35.49532 49 ft 0 kts 330°